Wind_Speed
15 17 18 19 20 21 21 20 20 19 19 19 19 19 19 20 21 21 22 23 24 25 26 27 28 29 29 30 30 30 31 31 32 33 34 35 36 36 37 37 38 38
16 18 19 21 22 23 23 23 23 23 22 21 20 19 19 20 21 22 23 24 25 25 26 26 27 28 28 29 29 29 29 30 30 32 33 33 34 35 36 36 37 38
17 19 20 21 23 24 24 25 25 25 24 23 22 20 20 21 22 23 23 24 25 25 25 25 26 26 27 27 28 28 28 28 28 29 30 31 32 33 34 35 36 36
18 19 21 22 24 25 26 26 26 26 25 23 22 21 21 22 22 22 23 23 24 24 25 25 25 25 26 26 26 26 26 26 27 28 29 30 31 32 32 33 33 33
19 20 21 23 25 27 27 27 26 25 24 23 22 22 23 23 23 23 23 23 23 23 24 24 24 25 25 26 26 26 26 26 27 28 29 29 30 31 31 32 32 32
19 21 22 24 26 27 27 27 26 25 23 23 24 24 24 24 24 23 23 23 22 22 22 23 23 24 25 26 27 27 27 27 28 29 29 29 29 29 29 30 31 32
20 22 23 25 27 27 27 27 26 25 25 25 25 25 25 24 23 23 22 21 21 21 22 23 23 24 25 26 26 27 27 28 28 29 29 28 28 29 29 30 31 31
21 23 25 26 27 27 26 27 27 28 28 27 25 24 24 23 23 23 22 22 21 22 23 24 24 24 25 25 26 27 27 28 28 28 29 29 29 30 30 31 31 32
22 23 25 26 26 26 27 29 30 31 30 27 24 22 22 22 22 23 23 22 22 23 24 24 24 24 25 25 26 27 27 27 27 28 28 29 29 30 31 31 32 33
22 23 24 24 25 26 29 31 33 32 29 26 23 22 22 22 22 22 22 22 23 23 23 24 25 25 26 26 26 26 26 27 27 27 28 29 29 30 32 32 33 34
21 22 22 22 24 27 30 32 33 31 27 24 24 24 23 22 21 20 21 22 23 23 23 23 24 25 26 27 27 27 27 27 27 28 28 29 30 31 32 33 34 35
19 20 21 22 25 28 30 31 31 28 26 24 24 24 23 21 19 20 20 22 22 22 22 23 23 24 25 26 26 26 27 27 28 29 29 29 30 31 32 33 34 36
18 19 21 23 25 28 30 30 29 26 24 24 23 22 21 20 20 20 21 21 22 23 24 24 24 24 25 25 25 25 25 27 28 29 30 31 31 31 32 33 34 35
17 19 21 23 25 27 30 30 27 25 23 22 21 20 20 20 21 22 22 22 23 24 25 25 26 25 25 26 26 26 26 27 28 29 30 31 31 32 32 33 34 35
17 19 21 23 25 28 30 29 26 23 22 21 19 19 19 21 22 23 24 24 25 25 26 26 26 26 26 26 27 27 28 28 29 29 30 30 30 31 32 33 34 35
17 20 21 23 26 29 29 27 23 21 20 19 18 19 20 21 23 24 25 25 26 26 27 27 27 27 26 26 27 28 29 30 30 31 31 31 30 30 30 31 32 34
18 20 22 23 26 29 28 25 22 20 20 19 19 19 20 22 23 24 25 25 26 26 27 27 28 28 27 27 28 29 30 30 31 31 31 31 31 30 29 28 29 30
19 21 22 24 26 28 27 24 22 21 20 19 19 20 21 22 23 23 24 25 25 26 27 28 28 28 28 29 29 30 30 31 31 32 31 31 31 30 28 26 26 27
21 22 23 25 26 27 26 24 23 22 21 20 20 21 22 22 22 23 23 24 25 26 27 28 28 28 28 29 29 30 31 31 32 32 32 31 30 29 27 25 24 24
22 23 24 25 26 27 25 23 22 22 21 20 21 22 22 22 22 22 23 24 25 26 27 27 27 28 28 28 29 29 30 31 31 31 31 30 29 27 25 24 23 22
22 23 24 25 25 25 25 23 22 21 20 20 21 22 22 21 21 22 23 25 26 26 27 27 26 26 26 27 27 28 28 29 30 29 29 28 26 24 23 22 22 21
23 23 24 24 24 24 23 22 21 21 20 21 21 21 21 20 20 22 23 24 25 25 25 25 24 23 23 24 24 25 26 26 26 26 25 23 22 21 21 21 20 20
24 23 23 23 22 22 22 21 21 21 21 21 21 20 19 20 20 22 23 23 24 24 23 22 21 21 21 21 22 22 23 22 22 22 21 20 19 19 19 19 19 18
23 22 22 21 21 21 21 20 20 20 20 21 20 19 19 19 20 21 21 21 22 21 20 19 18 18 18 19 19 20 20 19 18 19 18 17 17 17 17 18 19 19
21 21 21 20 20 20 20 20 20 19 19 19 18 18 18 19 19 19 19 19 19 18 17 16 15 15 16 17 17 17 16 15 15 15 15 15 16 16 17 18 19 20
20 20 20 19 20 20 20 19 18 18 18 18 17 17 17 18 18 18 17 16 16 15 14 14 14 14 15 15 14 14 13 12 12 13 13 13 14 16 17 18 19 19
Wind_Direction
303 305 308 313 318 319 318 317 315 314 312 308 302 296 293 289 285 283 280 277 274 272 270 269 267 266 265 263 262 260 259 258 258 258 257 257 257 257 257 256 255 254
299 302 306 311 316 319 319 318 316 315 312 307 302 296 291 289 288 287 285 283 280 277 274 271 270 268 267 265 263 260 258 257 257 258 258 258 258 258 258 258 258 257
295 300 305 310 314 316 317 317 316 315 311 307 302 297 292 290 289 288 287 285 284 281 279 276 273 271 269 267 264 262 259 256 254 255 256 257 257 256 256 256 257 257
293 299 304 307 311 313 314 315 315 313 309 306 302 297 294 292 290 289 287 286 284 282 280 278 276 274 272 269 267 264 262 259 256 254 253 254 255 256 256 257 257 258
291 296 302 305 307 310 311 311 311 310 307 305 302 298 295 293 291 290 288 287 285 283 281 280 279 278 276 274 272 270 267 264 261 258 255 253 253 255 257 259 261 263
287 294 299 302 304 306 307 307 308 308 308 305 302 299 296 294 293 291 291 291 289 286 283 281 280 279 277 277 276 275 273 270 267 264 261 260 258 258 259 260 262 263
285 292 297 299 301 304 305 305 307 310 311 308 304 300 298 296 294 293 292 290 287 284 281 278 277 276 275 274 274 273 271 270 268 267 266 265 264 262 260 260 260 260
286 292 296 300 303 305 305 306 311 314 314 311 306 301 298 297 295 293 290 287 284 281 280 278 277 277 275 274 273 272 270 269 268 268 267 267 266 265 264 264 264 263
287 293 298 302 305 306 308 312 315 316 314 312 307 300 297 297 295 292 289 286 284 282 282 282 281 280 279 276 275 274 274 273 272 271 270 269 269 269 270 270 269 269
288 295 299 303 305 308 313 315 315 315 314 311 305 301 299 297 293 289 286 284 283 282 283 284 284 283 282 280 279 278 278 277 277 276 275 274 273 273 273 273 273 273
291 296 299 302 307 311 314 314 314 314 313 308 304 302 300 296 291 287 284 283 284 284 284 284 283 283 282 282 282 282 282 281 280 279 277 276 275 274 275 275 275 275
292 296 301 306 311 313 313 313 313 314 310 305 303 302 300 297 292 288 285 286 288 289 288 286 284 282 282 282 283 283 284 284 283 282 280 277 275 274 274 274 275 275
292 297 304 309 312 312 311 312 313 311 307 304 303 303 302 299 294 292 293 295 297 297 296 293 289 286 285 286 285 285 285 284 283 282 281 280 279 278 277 277 276 276
293 299 306 310 312 311 312 313 312 307 303 303 306 306 304 300 298 300 302 303 304 302 299 296 294 294 294 294 293 292 289 286 284 283 282 282 282 282 282 282 281 280
294 301 307 310 310 311 313 313 309 303 303 307 309 307 304 303 304 306 307 307 306 303 300 299 298 298 299 300 299 297 294 292 290 288 287 286 286 286 285 285 284 283
296 303 307 308 310 312 314 312 307 305 307 311 310 306 305 305 307 309 310 309 307 305 304 303 301 302 303 304 303 301 299 297 295 294 294 293 292 290 288 286 284 282
298 303 303 304 309 313 315 313 310 310 313 312 308 305 305 306 308 311 311 309 308 306 306 305 304 306 308 306 304 302 300 299 298 297 297 296 295 293 290 287 284 281
296 299 298 301 307 313 317 315 313 313 313 309 307 306 305 307 310 311 310 308 307 307 307 308 309 310 309 307 306 303 301 300 300 299 299 298 297 296 294 290 285 282
294 296 297 301 307 314 317 315 311 311 309 307 307 306 306 309 310 310 309 309 309 309 309 310 309 309 309 307 305 303 303 303 302 302 302 302 301 300 298 295 291 287
292 295 298 300 306 312 314 311 308 308 307 307 307 306 307 309 310 311 313 312 311 311 309 309 308 308 308 306 305 305 305 305 304 304 304 304 303 303 303 301 298 295
290 294 295 298 304 309 310 308 307 307 307 306 305 305 307 310 312 314 314 311 310 309 307 307 307 307 307 305 305 306 305 305 305 305 304 303 305 306 305 304 302 302
288 290 291 296 302 306 308 308 307 307 306 304 303 304 308 311 314 314 310 307 307 306 305 306 306 306 305 304 305 305 305 306 306 306 305 305 307 308 307 306 307 309
285 286 290 297 302 306 309 309 307 306 305 303 303 305 310 313 311 308 305 304 303 303 305 306 306 305 304 304 306 308 309 308 308 307 307 308 310 310 310 312 314 316
282 286 292 298 305 310 311 309 306 305 303 303 304 308 311 309 305 304 303 302 304 306 308 308 306 304 304 307 310 311 310 308 306 308 309 311 314 315 318 321 322 322
283 290 294 300 308 312 311 308 305 302 301 302 306 309 307 303 303 304 305 307 310 313 313 312 311 310 308 307 310 311 311 309 307 308 310 313 318 323 325 326 325 326
286 293 297 304 311 312 310 307 302 299 300 303 305 306 305 304 305 307 310 315 319 319 319 321 322 319 311 307 310 315 319 320 317 314 316 320 325 329 329 329 328 330
Height
3115 3115 3114 3114 3114 3113 3112 3111 3110 3109 3108 3107 3106 3105 3104 3103 3102 3102 3102 3101 3100 3100 3099 3098 3098 3097 3097 3096 3096 3095 3095 3095 3094 3094 3093 3094 3093 3093 3093 3093 3093 3093
3113 3113 3112 3112 3111 3111 3110 3109 3107 3106 3105 3104 3103 3102 3101 3100 3099 3098 3098 3097 3096 3096 3095 3094 3094 3093 3092 3092 3092 3091 3091 3091 3090 3090 3089 3090 3089 3089 3089 3089 3089 3089
3111 3111 3110 3110 3109 3108 3107 3106 3105 3104 3102 3101 3100 3100 3098 3097 3096 3095 3094 3093 3092 3091 3091 3090 3089 3088 3088 3087 3087 3087 3087 3087 3087 3086 3085 3086 3085 3084 3084 3084 3084 3085
3109 3109 3108 3107 3107 3106 3105 3104 3102 3101 3100 3098 3097 3096 3095 3094 3093 3092 3091 3090 3088 3087 3086 3086 3085 3084 3083 3083 3082 3082 3082 3082 3082 3082 3082 3082 3081 3080 3080 3080 3080 3081
3107 3106 3106 3105 3104 3103 3102 3101 3100 3099 3097 3096 3095 3093 3092 3091 3090 3089 3087 3086 3085 3084 3083 3082 3081 3081 3080 3079 3079 3078 3078 3078 3078 3078 3077 3078 3077 3077 3077 3077 3077 3078
3105 3104 3104 3103 3102 3101 3100 3099 3097 3096 3095 3093 3092 3090 3089 3088 3087 3085 3084 3083 3082 3081 3080 3079 3078 3077 3076 3076 3075 3075 3075 3074 3074 3074 3074 3074 3075 3075 3075 3074 3074 3074
3103 3102 3101 3101 3100 3099 3097 3096 3094 3093 3091 3090 3088 3087 3086 3085 3084 3082 3081 3080 3078 3077 3076 3075 3074 3074 3073 3072 3072 3071 3071 3070 3070 3070 3070 3070 3071 3070 3070 3070 3069 3069
3100 3099 3099 3098 3096 3095 3094 3092 3090 3089 3088 3087 3085 3084 3082 3081 3080 3079 3077 3076 3074 3073 3072 3071 3070 3070 3069 3068 3068 3067 3066 3066 3066 3066 3066 3066 3066 3065 3065 3065 3064 3064
3097 3097 3096 3095 3093 3091 3090 3088 3087 3085 3084 3083 3082 3081 3079 3078 3077 3075 3074 3072 3071 3069 3068 3067 3067 3066 3065 3064 3064 3063 3063 3062 3062 3062 3062 3062 3061 3061 3060 3060 3059 3059
3095 3094 3094 3092 3091 3088 3087 3085 3083 3082 3081 3080 3079 3078 3077 3075 3074 3072 3070 3069 3067 3066 3065 3064 3063 3062 3061 3060 3060 3059 3059 3059 3058 3058 3058 3057 3056 3056 3055 3054 3053 3053
3093 3092 3091 3090 3088 3086 3084 3083 3081 3080 3078 3077 3076 3074 3073 3072 3071 3069 3067 3066 3064 3064 3063 3062 3060 3059 3058 3057 3056 3056 3055 3055 3055 3054 3054 3053 3052 3051 3050 3049 3047 3047
3091 3090 3089 3087 3086 3084 3082 3081 3079 3078 3076 3074 3073 3071 3070 3069 3067 3066 3064 3062 3061 3060 3059 3058 3057 3056 3055 3054 3053 3053 3052 3051 3050 3050 3049 3049 3048 3047 3046 3044 3043 3042
3089 3087 3086 3085 3083 3082 3080 3079 3077 3076 3074 3072 3070 3068 3067 3065 3063 3062 3060 3059 3058 3057 3056 3055 3054 3053 3052 3051 3050 3050 3049 3047 3046 3045 3044 3044 3043 3042 3041 3040 3039 3038
3086 3085 3084 3082 3081 3079 3078 3077 3075 3073 3071 3069 3067 3065 3064 3062 3060 3058 3057 3055 3054 3053 3052 3051 3050 3049 3048 3047 3046 3046 3045 3043 3042 3041 3040 3039 3038 3037 3037 3035 3034 3033
3083 3082 3081 3080 3079 3077 3076 3074 3072 3070 3068 3067 3065 3063 3061 3059 3057 3055 3053 3052 3051 3049 3048 3047 3045 3044 3044 3043 3042 3041 3040 3039 3038 3037 3036 3035 3034 3033 3032 3031 3029 3028
3081 3080 3078 3077 3076 3075 3073 3072 3070 3067 3066 3064 3062 3060 3058 3056 3054 3052 3051 3049 3047 3046 3044 3042 3041 3041 3040 3040 3039 3037 3036 3035 3034 3033 3032 3031 3030 3029 3028 3027 3025 3023
3078 3077 3076 3075 3074 3072 3071 3069 3066 3064 3063 3061 3059 3057 3055 3053 3051 3050 3048 3046 3044 3042 3041 3039 3038 3037 3037 3036 3035 3034 3033 3031 3030 3029 3028 3026 3025 3024 3024 3023 3021 3019
3076 3075 3074 3073 3072 3070 3068 3065 3063 3062 3060 3059 3057 3055 3053 3051 3049 3048 3046 3044 3042 3040 3038 3037 3035 3035 3034 3033 3031 3030 3028 3027 3026 3024 3023 3021 3020 3019 3019 3018 3017 3016
3073 3072 3071 3070 3069 3067 3065 3063 3061 3059 3058 3056 3055 3053 3051 3049 3047 3045 3043 3041 3039 3038 3036 3035 3033 3032 3031 3030 3028 3026 3025 3023 3021 3019 3018 3016 3015 3014 3014 3013 3012 3012
3071 3069 3068 3067 3066 3064 3062 3061 3059 3057 3056 3054 3052 3050 3048 3047 3045 3043 3041 3039 3037 3036 3034 3033 3032 3030 3028 3027 3025 3023 3021 3019 3017 3015 3013 3012 3010 3010 3009 3008 3008 3007
3068 3067 3066 3065 3063 3061 3060 3058 3056 3055 3053 3052 3050 3048 3046 3044 3042 3040 3039 3037 3035 3034 3032 3031 3029 3028 3026 3024 3022 3020 3018 3016 3014 3012 3010 3008 3007 3006 3005 3005 3004 3003
3066 3065 3064 3063 3061 3059 3057 3055 3053 3052 3051 3049 3048 3046 3044 3042 3040 3039 3037 3035 3034 3032 3030 3028 3027 3025 3023 3021 3020 3018 3016 3013 3011 3009 3007 3006 3005 3004 3003 3002 3001 3000
3063 3062 3061 3059 3058 3056 3054 3052 3051 3049 3048 3047 3045 3044 3042 3040 3038 3037 3035 3034 3032 3030 3028 3026 3024 3022 3021 3019 3017 3015 3013 3011 3009 3007 3005 3004 3003 3002 3001 3000 2998 2997
3060 3059 3058 3056 3054 3053 3051 3049 3048 3047 3045 3044 3042 3041 3039 3038 3036 3035 3033 3031 3029 3027 3025 3023 3022 3020 3018 3017 3015 3013 3011 3009 3007 3005 3003 3002 3001 3000 2999 2998 2996 2995
3057 3056 3055 3053 3051 3050 3048 3047 3046 3044 3043 3041 3040 3039 3037 3036 3034 3033 3031 3029 3027 3025 3023 3021 3019 3018 3016 3015 3013 3012 3010 3008 3006 3004 3002 3001 3000 2999 2997 2996 2994 2993
3054 3053 3051 3050 3048 3047 3046 3045 3043 3042 3041 3039 3038 3037 3035 3034 3032 3030 3029 3027 3025 3023 3021 3019 3017 3016 3014 3013 3011 3010 3008 3006 3004 3002 3001 3000 2999 2998 2996 2995 2993 2991